Weather History for Jackson, MI

Change the Weather History Date:

Sunday, January 5, 2014

  Actual Average Record
Temperature  
Mean Temperature 23 °F 24 °F  
Max Temperature 29 °F 31 °F 55 °F (1997)
Min Temperature 17 °F 17 °F -9 °F (1999)
Degree Days  
Heating Degree Days 42 41  
Month to date heating degree days 260 205  
Since 1 July heating degree days 2940 2753  
Cooling Degree Days 0 0  
Month to date cooling degree days 0 0  
Year to date cooling degree days 0 0  
Moisture  
Dew Point 22 °F    
Average Humidity 92    
Maximum Humidity 100    
Minimum Humidity 84    
Precipitation  
Precipitation 0.90 in 0.06 in 0.90 in (2014)
Month to date precipitation 1.34 0.29  
Year to date precipitation 1.34 0.29  
Sea Level Pressure  
Sea Level Pressure 29.85 in    
Wind  
Wind Speed 8 mph (NNE)    
Max Wind Speed 21 mph    
Max Gust Speed 35 mph    
Visibility 1 miles    
Events Fog , Snow    
T = Trace of Precipitation, MM = Missing Value Source: NWS Daily Summary

Daily Weather History Graph

Daily Weather History Graph

Search for Another Location

Airport:

Trip Planner

Search our weather history database for the weather conditions in past years. The results will help you decide how hot, cold, wet, or windy it might be!

Date:

Astronomy

Jan. 05, 2014 Rise Set
Actual Time 8:06 AM EST 5:20 PM EST
Civil Twilight 7:35 AM EST 5:51 PM EST
Nautical Twilight 7:00 AM EST 6:26 PM EST
Astronomical Twilight 6:26 AM EST 7:00 PM EST
Moon 10:41 AM EST (1/5) 10:53 PM EST (1/5)
Length of Visible Light 10h 16m
Length of Day
9h 13m
Waxing Crescent, 24% of the Moon is Illuminated
Jan 5
Waxing Crescent
Jan 7
First Quarter
Jan 15
Full
Jan 24
Last Quarter
Jan 30
New

Hourly Weather History & Observations

Time (EST) Temp. Windchill Dew Point Humidity Pressure Visibility Wind Dir Wind Speed Gust Speed Precip Events Conditions
12:56 AM 28.0 °F 22.8 °F 26.1 °F 92% 30.03 in 1.2 mi SSE 4.6 mph - 0.03 in Snow Light Snow
1:34 AM 27.0 °F - 26.1 °F 96% 29.99 in 1.2 mi Calm Calm - 0.01 in Snow Light Snow
1:56 AM 28.0 °F 24.2 °F 26.1 °F 92% 30.03 in 1.0 mi South 3.5 mph - 0.03 in Snow Light Snow
2:52 AM 28.4 °F 24.6 °F 26.6 °F 93% 29.99 in 1.8 mi SSE 3.5 mph - 0.03 in Snow Light Snow
2:56 AM 28.0 °F 22.8 °F 26.1 °F 92% 30.03 in 1.8 mi SSE 4.6 mph - 0.03 in Snow Light Snow
3:38 AM 27.0 °F 23.0 °F 26.1 °F 96% 29.99 in 1.2 mi SE 3.5 mph - 0.02 in Snow Light Snow
3:56 AM 27.0 °F 21.6 °F 26.1 °F 96% 30.02 in 0.8 mi SSE 4.6 mph - 0.03 in Snow Light Snow
4:08 AM 27.0 °F 21.6 °F 25.0 °F 92% 29.99 in 0.8 mi South 4.6 mph - 0.01 in Snow Light Snow
4:20 AM 27.0 °F 20.5 °F 26.1 °F 96% 29.98 in 1.2 mi SSE 5.8 mph - 0.02 in Snow Light Snow
4:56 AM 27.0 °F 21.6 °F 25.0 °F 92% 30.00 in 1.0 mi SSE 4.6 mph - 0.03 in Snow Light Snow
5:56 AM 27.0 °F 21.6 °F 25.0 °F 92% 30.01 in 1.5 mi SSE 4.6 mph - 0.01 in Snow Light Snow
6:56 AM 27.0 °F - 25.0 °F 92% 30.01 in 1.2 mi Calm Calm - 0.02 in Snow Light Snow
7:22 AM 27.0 °F 23.0 °F 25.0 °F 92% 29.96 in 1.8 mi East 3.5 mph - 0.00 in Snow Light Snow
7:32 AM 26.1 °F - 24.1 °F 92% 29.96 in 2.0 mi Calm Calm - 0.00 in Snow Light Snow
7:56 AM 26.1 °F 21.9 °F 24.1 °F 92% 30.01 in 2.0 mi East 3.5 mph - 0.00 in Snow Light Snow
8:08 AM 26.1 °F - 25.0 °F 96% 29.97 in 2.0 mi Calm Calm - 0.00 in Snow Light Snow
8:18 AM 27.0 °F - 25.0 °F 92% 29.97 in 1.8 mi Calm Calm - 0.00 in   Overcast
8:52 AM 26.6 °F - 24.8 °F 93% 29.97 in 1.2 mi Calm Calm - 0.00 in Snow Light Snow
8:56 AM 27.0 °F - 25.0 °F 92% 30.01 in 1.2 mi Calm Calm - 0.00 in Snow Light Snow
9:16 AM 27.0 °F - 25.0 °F 92% 29.97 in 0.8 mi Calm Calm - 0.00 in Snow Light Snow
9:23 AM 27.0 °F - 25.0 °F 92% 29.97 in 1.0 mi Calm Calm - 0.00 in Snow Light Snow
9:56 AM 28.0 °F - 25.0 °F 88% 29.99 in 1.2 mi Calm Calm - 0.01 in Snow Light Snow
10:56 AM 28.0 °F 24.2 °F 26.1 °F 92% 29.99 in 0.8 mi NNE 3.5 mph - 0.00 in Snow Light Snow
11:18 AM 28.0 °F - 26.1 °F 92% 29.94 in 0.2 mi Calm Calm - 0.02 in Fog , Snow Snow
11:42 AM 28.9 °F 22.8 °F 26.1 °F 89% 29.91 in 0.5 mi NNE 5.8 mph - 0.04 in Fog , Snow Snow
11:56 AM 28.9 °F 22.8 °F 26.1 °F 89% 29.94 in 0.5 mi NE 5.8 mph - 0.05 in Fog , Snow Snow
12:00 PM 28.9 °F 23.9 °F 26.1 °F 89% 29.90 in 0.2 mi NNE 4.6 mph - 0.00 in Fog , Snow Snow
12:33 PM 28.0 °F 22.8 °F 26.1 °F 92% 29.86 in 0.2 mi NNE 4.6 mph - 0.03 in Fog , Snow Snow
12:56 PM 28.0 °F 20.0 °F 26.1 °F 92% 29.88 in 0.2 mi NNE 8.1 mph - 0.06 in Fog , Snow Snow
1:56 PM 28.0 °F 18.6 °F 26.1 °F 92% 29.82 in 0.2 mi NNE 10.4 mph - 0.07 in Fog , Snow Snow
2:56 PM 24.1 °F 12.5 °F 21.0 °F 88% 29.79 in 0.2 mi North 12.7 mph 21.9 mph 0.07 in Fog , Snow Snow
3:56 PM 21.9 °F 10.4 °F 19.0 °F 89% 29.81 in 0.2 mi North 11.5 mph - 0.10 in Fog , Snow Heavy Snow
4:19 PM 21.0 °F 8.1 °F 19.0 °F 92% 29.74 in 0.2 mi NNE 13.8 mph 21.9 mph 0.06 in Fog , Snow Heavy Snow
4:44 PM 21.0 °F 8.1 °F 18.0 °F 88% 29.73 in 0.2 mi North 13.8 mph - 0.12 in Fog , Snow Snow
4:56 PM 21.0 °F 8.6 °F 18.0 °F 88% 29.77 in 0.2 mi North 12.7 mph 19.6 mph 0.14 in Fog , Snow Heavy Snow
5:24 PM 21.0 °F 9.9 °F 18.0 °F 88% 29.72 in 0.5 mi North 10.4 mph 19.6 mph 0.04 in Fog , Snow Snow
5:56 PM 21.0 °F 8.6 °F 18.0 °F 88% 29.75 in 0.5 mi North 12.7 mph - 0.07 in Fog , Snow Snow
6:07 PM 21.0 °F 9.3 °F 18.0 °F 88% 29.69 in 0.2 mi North 11.5 mph - 0.01 in Fog , Snow Heavy Snow
6:43 PM 21.0 °F 9.9 °F 18.0 °F 88% 29.70 in 0.5 mi North 10.4 mph - 0.05 in Fog , Snow Snow
6:53 PM 21.2 °F 10.1 °F 17.6 °F 86% 29.70 in 0.2 mi North 10.4 mph 18.4 mph 0.06 in Fog , Snow Snow
6:56 PM 21.0 °F 8.6 °F 18.0 °F 88% 29.74 in 0.2 mi North 12.7 mph 19.6 mph 0.06 in Fog , Snow Snow
7:03 PM 21.0 °F 9.3 °F 18.0 °F 88% 29.69 in 0.5 mi North 11.5 mph - 0.01 in Fog , Snow Snow
7:10 PM 21.0 °F 8.6 °F 18.0 °F 88% 29.68 in 0.5 mi North 12.7 mph 20.7 mph 0.01 in Fog , Snow Snow
7:23 PM 21.0 °F 8.6 °F 18.0 °F 88% 29.67 in 0.2 mi North 12.7 mph 24.2 mph 0.03 in Fog , Snow Heavy Snow
7:46 PM 21.0 °F 7.1 °F 18.0 °F 88% 29.66 in 0.5 mi North 16.1 mph 23.0 mph 0.04 in Fog , Snow Snow
7:56 PM 21.0 °F 7.6 °F 18.0 °F 88% 29.69 in 0.5 mi North 15.0 mph 20.7 mph 0.05 in Fog , Snow Snow
8:56 PM 21.0 °F 8.1 °F 17.1 °F 85% 29.66 in 0.5 mi North 13.8 mph 25.3 mph 0.02 in Fog , Snow Snow
9:56 PM 19.0 °F 5.6 °F 15.1 °F 85% 29.67 in 0.5 mi NNW 13.8 mph 26.5 mph 0.01 in Fog , Snow Snow
10:47 PM 18.0 °F 3.6 °F 14.0 °F 84% 29.62 in 1.0 mi NNW 15.0 mph 25.3 mph 0.01 in Snow Light Snow
10:56 PM 17.1 °F 1.5 °F 14.0 °F 88% 29.66 in 1.5 mi NNW 17.3 mph 23.0 mph 0.01 in Snow Light Snow
11:09 PM 17.1 °F 1.5 °F 12.9 °F 84% 29.62 in 1.5 mi NNW 17.3 mph 28.8 mph 0.00 in Snow Light Snow
11:20 PM 17.1 °F 2.0 °F 12.9 °F 84% 29.62 in 1.0 mi NNW 16.1 mph 34.5 mph 0.00 in Snow Light Snow
11:36 PM 17.1 °F 1.5 °F 12.9 °F 84% 29.64 in 1.0 mi NNW 17.3 mph 32.2 mph 0.00 in Snow Light Snow
11:56 PM 17.1 °F 3.0 °F 12.9 °F 84% 29.68 in 1.0 mi NNW 13.8 mph 21.9 mph 0.00 in Snow Light Snow